Location: Hiekkapohja
(62.3333°N, 25.7833°E)
Time: 00:06:12
(UTC+00:00)

COBE Rocket - Pass Details

Date: 07 August 2020
Orbit: 681 x 781 km, 97.1° (Epoch: 20 September)

Event Time Altitude Azimuth Distance (km) Brightness Sun altitude
Exits shadow 00:08:00 - 164° (SSE) 2,763 6.4 -8.6°
Reaches altitude 10° 00:09:32 10° 165° (SSE) 2,137 5.9 -8.6°
Maximum altitude 00:14:12 84° 252° (WSW) 696 3.8 -8.3°
Drops below altitude 10° 00:18:54 10° 343° (NNW) 2,141 7.0 -8.1°
Sets 00:21:09 0° 344° (NNW) 3,065 7.9 -7.9°
